Regional Weather Roundup
Issued by NWS

Home | Current Version | Previous Version | Text Only | Print | Product List | Glossary Off
Versions: 1 2 3 4 5 6 7 8 9 10 11 12 13 14 15 16 17 18 19 20 21 22 23 24 25 26 27 28 29 30 31 32 33 34 35 36 37 38 39 40 41 42 43 44 45 46 47 48 49 50

000
ASUS43 KBIS 311420
RWRND

NORTH DAKOTA REGIONAL WEATHER ROUNDUP
NATIONAL WEATHER SERVICE BISMARCK ND
900 AM CDT THU JUL 31 2014

NOTE: "FAIR" INDICATES FEW OR NO CLOUDS BELOW 12,000 FEET WITH NO
SIGNIFICANT WEATHER AND/OR OBSTRUCTIONS TO VISIBILITY.


NDZ001>003-009>011-017-311500-
NORTHWEST NORTH DAKOTA

CITY           SKY/WX    TMP DP  RH WIND       PRES   REMARKS
WILLISTON      PTSUNNY   66  60  81 W9        30.08R
MINOT          SUNNY     68  57  68 CALM      30.08F
MINOT AFB      SUNNY     67  60  77 W2        30.08S
$$

NDZ018>021-031>035-040>046-311500-
SOUTHWEST NORTH DAKOTA

CITY           SKY/WX    TMP DP  RH WIND       PRES   REMARKS
BISMARCK       MOSUNNY   66  58  75 CALM      30.11S
DICKINSON      PTSUNNY   62  57  83 E3        30.10F
GARRISON         N/A     68  61  78 CALM      30.09F
HETTINGER ARPT PTSUNNY   64  58  80 CALM      30.15F
$$

NDZ004>008-012>016-024-026-027-054-311500-
NORTHEAST NORTH DAKOTA

CITY           SKY/WX    TMP DP  RH WIND       PRES   REMARKS
GRAND FORKS    SUNNY     68  61  77 NW7       30.02F
GRND FRKS AFB  SUNNY     69  64  83 NW7       30.04S
DEVILS LAKE    SUNNY     68  57  68 N3        30.06S
$$

NDZ022-023-025-028>030-036>039-047>053-311500-
SOUTHEAST NORTH DAKOTA

CITY           SKY/WX    TMP DP  RH WIND       PRES   REMARKS
FARGO          SUNNY     66  58  75 CALM      30.04F
JAMESTOWN      MOSUNNY   68  59  73 NW3       30.08S
$$




USA.gov is the U.S. government's official web portal to all federal, state and local government web resources and services.